Regional Weather Roundup
Issued by NWS Charleston, SC

Current Version | Previous Version | Graphics & Text | Print | Product List | Glossary On
Versions: 1 2 3 4 5 6 7 8 9 10 11 12 13 14 15 16 17 18 19 20 21 22 23 24 25 26 27 28 29 30 31 32 33 34 35 36 37 38 39 40 41 42 43 44 45 46 47 48 49 50
000
ASUS42 KCHS 092025
RWRCHS

REGIONAL WEATHER ROUNDUP
NATIONAL WEATHER SERVICE CHARLESTON SC
400 PM EDT WED JUL 09 2014

NOTE: "FAIR" INDICATES FEW OR NO CLOUDS BELOW 12,000 FEET WITH NO
SIGNIFICANT WEATHER AND/OR OBSTRUCTIONS TO VISIBILITY.

NOT ALL STATIONS ARE QUALITY CONTROLLED BY THE NATIONAL
WEATHER SERVICE. USE DATA WITH CAUTION...ESPECIALLY
DEWPOINT OBSERVATIONS.

SCZ027-030-031-034>040-042>050-092100-
...SOUTH CAROLINA...

CITY           SKY/WX    TMP DP  RH WIND       PRES   REMARKS
N CHARLESTON   MOSUNNY   94  70  45 S15       30.00F HX 100
WATERFRONT PRK   N/A     84 N/A N/A S18         N/A
FORT JOHNSON   NOT AVBL
MOUNT PLEASANT FAIR      90  75  62 S14G21    30.01S HX 100
JOHNS ISLAND   CLEAR     88  73  62 S17G24    30.01F HX  96
PINOPOLIS        N/A     97  66  36 CALM      29.89F HX 100
MONCKS CORNER    N/A     95  72  46 S12       29.98S HX 103
SUMMERVILLE    FAIR      95  72  46 SE9       29.99F HX 103
BEAUFORT MCAS  MOSUNNY   91  73  55 S9        30.00F HX  99
BEAUFORT ARPT  NOT AVBL
HILTON HEAD IS MOSUNNY   86  79  79 S7        30.03F HX  99
GEORGETOWN     NOT AVBL
WALTERBORO       N/A     97  59  28 S14       29.98F HX  96
ORANGEBURG     SUNNY     95  58  28 SW8       29.97F HX  94
BARNWELL       FAIR      97  63  32 SW8       29.97F HX  98
AIKEN          MOCLDY    91  66  43 SW14G20   30.00F HX  94
MANNING        FAIR      95  45  17 S3        29.97F HX  91
KINGSTREE      NOT AVBL
COLUMBIA       PTSUNNY   86  68  54 NW5       29.96F
SUMTER         MOSUNNY   98  61  29 SW16G23   29.95F HX  98
FLORENCE       MOSUNNY   98  59  27 SW14G24   29.96F HX  98
MYRTLE BEACH   SUNNY     88  75  66 S20G28    29.99F HX  97
N MYRTLE BEACH SUNNY     86  77  74 S17G25    30.00F HX  97

$$

GAZ063-065-086>088-099>101-113>116-118-119-134-136>141-150-092100-
...GEORGIA...

CITY           SKY/WX    TMP DP  RH WIND       PRES   REMARKS
SAVANNAH ARPT  PTSUNNY   92  73  53 S12       30.00F HX 100
HUNTER AAF     PTSUNNY   82  73  74 E9        30.00S
FORT STEWART   MOSUNNY   93  69  45 S2        29.99F HX  97
STATESBORO     NOT AVBL
SYLVANIA       PTCLDY    94  68  42 SW8       29.99F HX  99
CLAXTON        CLOUDY    91  70  49 W5        29.99F HX  97
THOMSON        PTSUNNY   95  69  43 SW7       30.01S HX 100
AUGUSTA-BUSH   MOSUNNY   97  60  29 S9        29.95F HX  97
AUGUSTA-DANIEL PTSUNNY   95  61  32 SW8       29.97F HX  95
SWAINSBORO     FAIR      97  68  38 W8G16     29.99F HX 101
VIDALIA          N/A     95  68  41 SW12      29.99F HX  99
ALMA           MOSUNNY   93  65  39 W9        30.01F HX  95
WAYCROSS       MOSUNNY   99  66  34 W9        30.01F HX 102
JESUP          NOT AVBL
BRUNSWICK      SUNNY     91  68  46 CALM      30.03S HX  95
SAINT SIMONS   SUNNY     89  70  53 S12       30.03F HX  94

$$

SCZ027-028-034-036>038-045-046-048>050-GAZ119-141-092100-
...LAKE AND SUPPLEMENTAL COASTAL OBSERVATIONS...

STATION/POSITION TIME  TEMP    WIND        PRES    WAVE   SWELL
                       AIR SEA DIR/SP/G            HT/PER HT/PER/DIR
                 (UTC) (F)     (DEG/KT/KT) (MB)    (FT/S) (FT/S/D)
UPR LAKE MARION  NOT AVBL
WINYAH BAY       2000   87     190/ 14     1016.0S
LAKE MURRAY      1900   82     230/ 12/ 16 1015.2R
ACE BASIN NERRS  2000   89     170/  3     1016.0F
FORT PULASKI     2000   86 79  180/  7/ 13   N/A
SAPELO ISLAND    2000   89     170/ 15     1018.0S

$$

ANZ835-935-AMZ111-154-330-350-352-354-374-450-454-472-092100-
...C-MAN AND BUOY OBSERVATIONS...

STATION/POSITION TIME  TEMP    WIND        PRES    WAVE   SWELL
                       AIR SEA DIR/SP/G            HT/PER HT/PER/DIR
                 (UTC) (F)     (DEG/KT/KT) (MB)    (FT/S) (FT/S/D)
FOLLY BEACH CMAN 2000   84     190/ 15/ 19 1016.9F
BUOY 41004       2000   82 82  200/ 16/ 19 1016.3F   4/ 5   2/ 8
BUOY 41008       2000   83 85  190/ 16/ 17 1017.0F   2/ 8   2/120/ 8
5E ST. MARYS GA  2000      84                N/A     2/ 9
FRYING PAN BUOY  NOT AVBL
BUOY 41025       2000          300/ 16/ 19 1016.3F   5/ 6   2/190/ 9
CAPE LOOKOUT NC  2000   83     190/ 19/ 24 1015.9F
BUOY 41002       1855   81 81  220/  8/  8 1020.3    4/ 9   3/120/ 9
BUOY 41010       2000   83 85  160/  6/  8 1019.7R   3/ 9   2/120/ 9
BUOY 41012       NOT AVBL
ST AUGUSTINE FL  2000   80     160/ 15/ 16 1019.0F
CAPERS NEARSHORE 1900   83     210/ 16/ 19   N/A
FRIPP NEARSHORE  1900   85     210/ 14/ 17   N/A


$$



USA.gov is the U.S. government's official web portal to all federal, state and local government web resources and services.